Location: Beddau
(51.5575°N, 3.3561°W)
Time: 16:11:28
(UTC+00:00)

OBJECT-B - Pass Details

Date: 03 March 2021
Orbit: 414 x 427 km, 97.0° (Epoch: 11 April)

Event Time Altitude Azimuth Distance (km) Brightness Sun altitude
Exits shadow 19:38:15 43° 97° (E) 607 1.0 -16.4°
Maximum altitude 19:38:39 46° 72° (ENE) 580 1.0 -16.5°
Drops below altitude 10° 19:41:46 10° 358° (N) 1,515 3.7 -16.9°
Sets 19:43:49 0° 352° (N) 2,383 4.8 -17.2°
